User: anonymous   Login
Location: ????????
(55.0097°N, 38.5678°E)
Time: 14:52:11
(UTC+00:00)
Language:

Okean 1 - Orbit

View from above orbital plane
View from above orbital plane
View from above satellite
View from above satellite

Ground track
Ground track

The orbit data is extracted from the following two-line orbital elements,

1 19274U 88056A   24169.72939211  .00005717  00000-0  29370-3 0  9990
2 19274  82.4757 175.5012 0016403 216.9520 143.0584 15.16184120939115
Epoch (UTC): 17 June 2024 17:30:19
Eccentricity: 0.0016403
inclination: 82.4757°
perigee height: 506 km
apogee height: 529 km
right ascension of ascending node: 175.5012°
argument of perigee: 216.9520°
revolutions per day: 15.16184120
mean anomaly at epoch: 143.0584°
orbit number at epoch: 93911

The dashed part of the orbit path shows where the satellite is in the earth's shadow,  

DLR